M7VJL-13 Weather Reports


Display with metric or nautical units.
time (UTC)temp
F
wind
direction
speed
MPH
gust
MPH
rain 1hr
in
rain 24hr
in
rain mn
in
humidity
%
barometer
mb
20260505210017 49 280 1.0 4.0 0.00 0.00 0.00 79 1014.3
20260505210004 49 280 0.0 4.0 0.00 0.00 0.00 79 1014.3
20260505204505 49 111 1.0 6.0 0.00 0.00 0.00 77 1014.2
20260505203018 49 188 2.0 6.0 0.00 0.00 0.00 78 1014.1
20260505201515 49 333 1.0 8.0 0.00 0.00 0.00 81 1014.0
20260505200003 50 94 1.0 8.0 0.00 0.00 0.00 81 1013.9
20260505194504 50 31 2.0 8.0 0.00 0.00 0.00 81 1013.7
20260505193005 51 86 1.0 9.0 0.00 0.00 0.00 80 1013.6
20260505191510 51 55 1.0 5.0 0.00 0.00 0.00 80 1013.4
20260505190014 51 35 1.0 5.0 0.00 0.00 0.00 79 1013.3
20260505184503 52 257 2.0 8.0 0.00 0.00 0.00 79 1013.0
20260505183004 52 105 1.0 7.0 0.00 0.00 0.00 79 1012.8
20260505181507 52 229 2.0 8.0 0.00 0.00 0.00 79 1012.8
20260505180021 53 113 2.0 8.0 0.00 0.00 0.00 80 1012.7
20260505174513 53 123 1.0 9.0 0.00 0.00 0.00 79 1012.7
20260505173004 54 76 3.0 7.0 0.00 0.00 0.00 77 1012.7
20260505171505 54 150 1.0 7.0 0.00 0.00 0.00 77 1012.7
20260505170010 55 67 1.0 6.0 0.00 0.00 0.00 76 1012.7
20260505164509 56 143 1.0 7.0 0.00 0.00 0.00 75 1012.5
20260505163017 56 341 1.0 5.0 0.00 0.00 0.00 75 1012.6
20260505161522 56 194 1.0 9.0 0.00 0.00 0.00 75 1012.3
20260505153014 57 186 1.0 6.0 0.00 0.00 0.00 74 1012.3
20260505151519 57 316 2.0 8.0 0.00 0.00 0.00 73 1012.3
20260505124522 60 355 2.0 10.0 0.00 0.00 0.00 65 1012.4
20260505123031 61 317 5.0 11.0 0.00 0.00 0.00 60 1012.3
20260505121514 61 317 5.0 11.0 0.00 0.00 0.00 63 1012.3
20260505120022 61 290 3.0 12.0 0.00 0.00 0.00 64 1012.4
20260505114519 61 326 2.0 7.0 0.00 0.00 0.00 64 1012.5
20260505113005 59 298 1.0 10.0 0.00 0.00 0.00 69 1012.6
20260505111516 58 360 2.0 8.0 0.00 0.00 0.00 70 1012.8
20260505101522 58 304 2.0 7.0 0.00 0.00 0.00 75 1013.1
20260505100032 56 294 1.0 7.0 0.00 0.00 0.00 75 1013.2
20260505094520 56 286 3.0 8.0 0.00 0.00 0.00 76 1013.1
20260505093004 55 252 1.0 7.0 0.00 0.00 0.00 79 1013.2
20260505091502 54 355 1.0 4.0 0.00 0.00 0.00 79 1013.3
20260505090008 53 288 2.0 8.0 0.00 0.00 0.00 80 1013.4
20260505084512 53 317 0.0 7.0 0.00 0.00 0.00 82 1013.4
20260505083023 53 286 1.0 6.0 0.00 0.00 0.00 85 1013.4
20260505074511 49 289 2.0 4.0 0.00 0.00 0.00 94 1013.4
20260505071519 48 250 0.0 3.0 0.00 0.00 0.00 94 1013.5
20260505063010 46 249 0.0 1.0 0.00 0.00 0.00 94 1013.8
20260505061523 46 249 0.0 0.0 0.00 0.00 0.00 94 1013.9
20260505060020 47 249 0.0 0.0 0.00 0.00 0.00 94 1013.9
20260505040020 44 248 0.0 0.0 0.00 0.00 0.00 91 1013.4
20260505033027 46 249 0.0 1.0 0.00 0.00 0.00 92 1013.5
20260505031531 47 249 0.0 3.0 0.00 0.00 0.00 92 1013.6
20260505030012 47 224 0.0 0.0 0.00 0.00 0.00 91 1013.5
20260505023010 47 224 0.0 0.0 0.00 0.00 0.00 91 1013.7
20260505013002 49 224 0.0 0.0 0.00 0.00 0.00 89 1014.0
20260505004512 50 224 0.0 0.0 0.00 0.00 0.00 88 1014.1
20260505003018 50 224 0.0 1.0 0.00 0.00 0.00 88 1014.3
20260505001503 50 224 0.0 1.0 0.00 0.00 0.00 89 1014.4
20260505000008 50 224 0.0 2.0 0.00 0.00 0.00 89 1014.5
20260504234510 50 224 0.0 1.0 0.00 0.00 0.00 89 1014.7
20260504233016 50 224 0.0 1.0 0.00 0.00 0.00 89 1014.8
20260504231520 50 224 0.0 2.0 0.00 0.00 0.00 89 1014.9
20260504230006 50 225 0.0 1.0 0.00 0.00 0.00 89 1014.7
20260504224510 51 225 0.0 3.0 0.00 0.00 0.00 89 1014.8
20260504223014 51 123 0.0 2.0 0.00 0.00 0.00 89 1014.8
20260504221537 51 125 0.0 3.0 0.00 0.00 0.00 89 1014.9
20260504220020 51 134 0.0 0.0 0.00 0.00 0.00 89 1015.0
20260504214522 51 134 0.0 0.0 0.00 0.00 0.00 89 1015.0
20260504213012 51 134 0.0 0.0 0.00 0.00 0.00 88 1015.0